Regional Weather Roundup
Issued by NWS

Home | Current Version | Previous Version | Text Only | Print | Product List | Glossary On
Versions: 1 2 3 4 5 6 7 8 9 10 11 12 13 14 15 16 17 18 19 20 21 22 23 24 25 26 27 28 29 30 31 32 33 34 35 36 37 38 39 40 41 42 43 44 45 46 47 48 49 50
000
ASUS43 KDTX 041710
RWRMI
MICHIGAN HOURLY REGIONAL WEATHER ROUNDUP
NATIONAL WEATHER SERVICE DETROIT/PONTIAC MI
100 PM EDT FRI SEP 04 2015

NOTE: "FAIR" INDICATES FEW OR NO CLOUDS BELOW 12,000 FEET WITH NO
SIGNIFICANT WEATHER AND/OR OBSTRUCTION TO VISIBILITY.

MIZ047>049-052>055-059>063-066>070-074>076-081>083-041800-
SOUTHEAST LOWER MICHIGAN

CITY           SKY/WX    TMP DP  RH WIND       PRES   REMARKS
ADRIAN         PTSUNNY   80  70  71 NW3       30.03S
ALMA           CLOUDY    71  71  99 CALM      30.03S FOG
ANN ARBOR      CLOUDY    75  68  78 S3        30.03S
BAD AXE        CLOUDY    76  69  77 SE7       30.06S
DETROIT CITY   PTSUNNY   78  68  71 S9        30.03S
DETROIT        CLOUDY    77  69  76 SE5       30.03S
FLINT          CLOUDY    76  67  73 S7        30.03S
GROSSE ILE     CLOUDY    77  72  83 SE8       30.02F
HILLSDALE      SUNNY     77  69  77 NW7       30.05S
HOWELL         PTSUNNY   75  68  77 S7        30.03S

CITY           SKY/WX    TMP DP  RH WIND       PRES   REMARKS
JACKSON        PTSUNNY   76  67  73 W7        30.03F
LAMBERTVILLE   CLOUDY    83  72  70 CALM      30.02F
LANSING        CLOUDY    74  66  76 SW3       30.03S
LAPEER         NOT AVBL
MASON          CLOUDY    74  65  74 CALM      30.04S
MONROE         CLOUDY    79  71  75 CALM      30.01F
MT. CLEMENS    CLOUDY    76  69  78 SE12      30.03R
PONTIAC        CLOUDY    73  69  87 SE5       30.03S
PORT HOPE        N/A     74  69  85 E16G22    30.05S
PORT HURON     CLOUDY    77  70  78 S5        30.05S
TRI CITIES     CLOUDY    73  69  87 SE6       30.04R
YPSILANTI      CLOUDY    78  70  76 SW6       30.04S
$$
MIZ043>046-050>051-056>058-064>065-071>073-077>080-041800-
SOUTHWEST LOWER MICHIGAN

CITY           SKY/WX    TMP DP  RH WIND       PRES   REMARKS
BATTLE CREEK   PTSUNNY   79  65  62 W8        30.04S
BENTON HARBOR  MOSUNNY   74  66  76 W6        30.04S
BIG RAPIDS     CLOUDY    70  67  92 CALM      30.04S
COLDWATER      SUNNY     77  65  68 W3        30.04F
HOLLAND        PTSUNNY   76  66  71 W8        30.04S
GRAND RAPIDS   CLOUDY    73  67  81 W6        30.04R
KALAMAZOO      MOSUNNY   79  64  60 W9        30.04S
MARSHALL       MOSUNNY   79  66  63 W6        30.03S
MUSKEGON       CLOUDY    70  65  84 W7        30.04R
$$
MIZ016>042-041800-
NORTHERN LOWER MICHIGAN

CITY           SKY/WX    TMP DP  RH WIND       PRES   REMARKS
ALPENA         SUNNY     77  68  73 E10       30.08S
BEAVER ISLAND  MOSUNNY   75  66  73 E16       30.07R
BELLAIRE       CLOUDY    73  66  80 SE5       30.05S
CADILLAC       DRIZZLE   69  67  96 NE3       30.06R
CHARLEVOIX     CLOUDY    72  66  82 SE5       30.08S
FRANKFORT      CLOUDY    75  68  78 SE5       30.03F
GAYLORD        CLOUDY    70  69  97 E6        30.08S FOG
GRAYLING       CLOUDY    69  67  93 E7        30.07S
HARBOR SPRINGS CLOUDY    72  67  84 E6        30.06F
HOUGHTON LAKE  CLOUDY    71  67  87 E9        30.06R
MANISTEE       CLOUDY    73  64  73 CALM      30.03F
OSCODA         CLOUDY    71  70  95 SE7       30.06S
PELLSTON       CLOUDY    74  66  76 E9        30.07S
TRAVERSE CITY  CLOUDY    72  66  81 E6        30.04R
$$
MIZ007>008-015-041800-
EASTERN UPPER MICHIGAN

CITY           SKY/WX    TMP DP  RH WIND       PRES   REMARKS
KINROSS        MOSUNNY   77  66  69 SE12G21   30.09S
MACKINAC ISLAN MOSUNNY   71  66  84 E15G21    30.08S
NEWBERRY       MOSUNNY   78  64  62 SE9G17    30.08S
S. S. MARIE    MOSUNNY   76  64  66 E8        30.09S
$$
MIZ004>006-011>014-085-041800-
CENTRAL UPPER MICHIGAN

CITY           SKY/WX    TMP DP  RH WIND       PRES   REMARKS
MANISTIQUE     MOSUNNY   77  65  66 SE7       30.06S
ESCANABA       MOSUNNY   75  63  64 E8        30.05S
MENOMINEE      CLOUDY    72  63  73 E7        30.05S
SAWYER-GWINN   SUNNY     79  61  53 E7        30.08S
$$
MIZ001>003-009>011-084-041800-
WESTERN UPPER MICHIGAN

CITY           SKY/WX    TMP DP  RH WIND       PRES   REMARKS
IRON MOUNTAIN  SUNNY     77  62  59 SE5       30.06F
HOUGHTON       SUNNY     77  61  57 E8        30.09R
COPPER HARBOR    N/A     80  58  46 VRB5      30.08R
IRONWOOD       SUNNY     79  64  61 S12       30.01S
$$

ABBREVIATIONS USED IN REMARKS
   TC - TEMPERATURE IN CELSIUS
  WCI - WIND CHILL INDEX
   HX - HEAT INDEX
  VSB - VISIBILITY




USA.gov is the U.S. government's official web portal to all federal, state and local government web resources and services.